Regional Weather Roundup
Issued by NWS

Home | Current Version | Previous Version | Text Only | Print | Product List | Glossary Off
Versions: 1 2 3 4 5 6 7 8 9 10 11 12 13 14 15 16 17 18 19 20 21 22 23 24 25 26 27 28 29 30 31 32 33 34 35 36 37 38 39 40 41 42 43 44 45 46 47 48 49 50

000
ASUS43 KLOT 241208
RWRIL

ILLINOIS REGIONAL WEATHER ROUNDUP
NATIONAL WEATHER SERVICE CHICAGO/ROMEOVILLE IL
700 AM CDT SUN MAY 24 2015

NOTE: "FAIR" INDICATES FEW OR NO CLOUDS BELOW 12,000 FEET WITH NO
SIGNIFICANT WEATHER AND/OR OBSTRUCTIONS TO VISIBILITY.

* THESE STATIONS ARE NOT UNDER NWS QUALITY CONTROL. THEY ALSO MAY NOT
  REPORT WEATHER SUCH AS PRECIPITATION OR FOG.

ILZ001-002-007-009-015-016-024-241300-
NORTHWEST ILLINOIS

CITY           SKY/WX    TMP DP  RH WIND       PRES   REMARKS
MOLINE         RAIN      60  54  80 SE9       30.12R
6HR MIN TEMP:  60; 6HR MAX TEMP:  67; 6HR PCP:  0.07;

STERLING*      CLOUDY    61  54  77 E7        30.14F
SAVANNA*       CLOUDY    60  55  82 NE3       30.12F
$$

ILZ003-004-008-010-011-017-018-241300-
NORTH CENTRAL ILLINOIS

CITY           SKY/WX    TMP DP  RH WIND       PRES   REMARKS
ROCKFORD       CLOUDY    63  52  67 SE5       30.17F
6HR MIN TEMP:  60; 6HR MAX TEMP:  64; 6HR PCP: TRACE;

FREEPORT*      CLOUDY    59  53  81 S5        30.16F
ROCHELLE*      CLOUDY    60  54  80 SE5       30.17S
DE KALB*       CLOUDY    58  53  83 SE5       30.18F
PERU*          CLOUDY    58  57  99 E8        30.16S
$$

ILZ005-006-012>014-019>023-241300-
NORTHEAST ILLINOIS

CITY           SKY/WX    TMP DP  RH WIND       PRES   REMARKS
CHICAGO-OHARE  CLOUDY    63  50  62 VRB3      30.18S
6HR MIN TEMP:  59; 6HR MAX TEMP:  65; 6HR PCP: TRACE;

CHICAGO-MIDWAY LGT RAIN  64  51  62 S8        30.19S
6HR MIN TEMP:  64; 6HR MAX TEMP:  69; 6HR PCP:  0.01;

AURORA         LGT RAIN  60  54  80 E6        30.18F
6HR MIN TEMP:  59; 6HR MAX TEMP:  63; 6HR PCP:  0.01;

LANSING*       CLOUDY    62  49  63 CALM      30.19F
JOLIET*        CLOUDY    60  57  89 CALM      30.17F
WAUKEGAN       CLOUDY    59  51  75 CALM      30.17F
6HR MIN TEMP:  49; 6HR MAX TEMP:  59;

DUPAGE AIRPORT CLOUDY    61  54  77 SW7       30.19F
6HR MIN TEMP:  58; 6HR MAX TEMP:  62; 6HR PCP:  0.01;

KANKAKEE*      CLOUDY    62  53  70 E5        30.19S
WHEELING       LGT RAIN  62  52  69 S5        30.20S
6HR MIN TEMP:  56; 6HR MAX TEMP:  63; 6HR PCP: TRACE;

MORRIS*        CLOUDY    60  55  81 CALM      30.14S
ROMEOVILLE*    CLOUDY    58  55  88 NE7       30.18F
NORTHERLY ISL    N/A     58  50  75 S2          N/A
$$

LMZ740>746-241300-
SOUTHERN LAKE MICHIGAN

STATION/POSITION SKY/WX   TEMP    WIND        PRES    VSBY  WAVE
                          AIR SEA DIR/SP/G                  HT/PER
                          (F)     (DEG/KT/KT) (MB)    (MI)  (FT/S)
SOUTHERN BUOY              45 38  170/  8/ 10 1023.3F
HARRISON CRIB              63     130/  9/ 12   N/A
BURNHAM HARBOR             59     140/  3       N/A
CALUMET HARBOR             62     140/  2/  2   N/A
BURNS HARBOR               66     150/  6/ 10 1023.0F
MICHIGAN CITY              64     120/  8/ 10   N/A
MICHIGAN CITY 6N           59 54  150/  6/  8   N/A           0
ST. JOSEPH                 60 54  180/  8/  8   N/A           1
$$

ILZ025>027-034>036-040-047-049-050-058-095>099-241300-
WEST-CENTRAL ILLINOIS

CITY           SKY/WX    TMP DP  RH WIND       PRES   REMARKS
QUINCY         CLOUDY    63  55  75 E10       30.06S
GALESBURG*     DRIZZLE   60  56  87 E6        30.11F
MACOMB*        LGT RAIN  61  57  86 E7        30.11F
JACKSONVILLE*  CLOUDY    68  54  61 SE12      30.10S
PITTSFIELD*    CLOUDY    66  54  66 SE7       30.09R
$$

ILZ028>032-037-038-041>044-048-051>054-059>061-241300-
CENTRAL ILLINOIS

CITY           SKY/WX    TMP DP  RH WIND       PRES   REMARKS
PONTIAC        CLOUDY    64  56  75 E8        30.18R
BLOOMINGTON    CLOUDY    66  52  60 SE10      30.16F
DECATUR        CLOUDY    65  51  60 SE9       30.15F
PEORIA         CLOUDY    66  54  65 E7        30.13F
6HR MIN TEMP:  66; 6HR MAX TEMP:  70; 6HR PCP:  0.01;

LACON*         CLOUDY    60  55  82 E3        30.13F
LINCOLN*       CLOUDY    67  52  59 SE7       30.11F
SPRINGFIELD    CLOUDY    66  52  60 SE9       30.12S
6HR MIN TEMP:  65; 6HR MAX TEMP:  71;

TAYLORVILLE    CLOUDY    64  52  63 SE12      30.13S
$$

ILZ033-039-045-046-055>057-062-063-241300-
EAST-CENTRAL ILLINOIS

CITY           SKY/WX    TMP DP  RH WIND       PRES   REMARKS
CHAMPAIGN      CLOUDY    66  51  58 SE9       30.17F
DANVILLE*      CLOUDY    64  51  63 SE6       30.17S
RANTOUL*       CLOUDY    66  52  61 SE6       30.18F
MATTOON        CLOUDY    64  51  62 SE9       30.17S
PARIS*         CLOUDY    66  51  58 SE8       30.20S
$$

ILZ079-100>102-241300-
SOUTHWEST ILLINOIS

CITY           SKY/WX    TMP DP  RH WIND       PRES   REMARKS
ALTON          MOSUNNY   64  59  82 MISG      30.11R
BELLEVILLE     MOSUNNY   64  58  81 E6        30.11R
CAHOKIA*       MOSUNNY   67  55  65 SE10      30.10R
SPARTA*        MOSUNNY   64  57  78 SE9       30.13S
$$

ILZ064>066-069>071-074>076-080>082-084>086-088>090-092>094-241300-
SOUTH-CENTRAL ILLINOIS

CITY           SKY/WX    TMP DP  RH WIND       PRES   REMARKS
CARBONDALE     MOSUNNY   66  58  75 SE6       30.14R
6HR MIN TEMP:  62; 6HR MAX TEMP:  66;

CAIRO*         CLOUDY    70  59  69 S9        30.14R
EFFINGHAM*     PTSUNNY   65  51  59 E8        30.18S
MARION         PTSUNNY   66  57  72 SE6       30.16R
MT. VERNON     MOSUNNY   66  54  63 SE7       30.17R
CENTRALIA*     PTSUNNY   69  53  56 SE9       30.14S
SALEM*         PTSUNNY   67  54  62 SE6       30.15S
METROPOLIS*    PTSUNNY   66  60  79 SE3       30.16R
$$

ILZ067-068-072-073-078-083-087-091-241300-
SOUTHEAST ILLINOIS

CITY           SKY/WX    TMP DP  RH WIND       PRES   REMARKS
LAWRENCEVILLE  PTSUNNY   65  54  67 S8        30.20S
FLORA*         PTSUNNY   64  54  69 SE8       30.18R
FAIRFIELD*     MOSUNNY   67  56  67 SE7       30.17R
HARRISBURG*    MOSUNNY   64  58  83 E5        30.18R
ROBINSON*      PTSUNNY   64  52  64 S8        30.20S
CARMI*         PTSUNNY   64  54  68 SE7       30.19R
$$

ABBREVIATIONS USED IN REMARKS
   TC - TEMPERATURE IN CELSIUS
  WCI - WIND CHILL INDEX
   HX - HEAT INDEX
  VSB - VISIBILITY
$$




USA.gov is the U.S. government's official web portal to all federal, state and local government web resources and services.